Time,TemperatureF,DewpointF,PressureIn,WindDirection,WindDirectionDegrees,WindSpeedMPH,WindSpeedGustMPH,Humidity,HourlyPrecipIn,Conditions,Clouds,dailyrainin,SolarRadiationWatts/m^2,SoftwareType,DateUTC
2013-11-26 00:01:00,25.0,8.0,-100.00,SSW,211,3.0,16.0,47,0.00,,,0.05,0.000000,,2013-11-26 05:01:00,
2013-11-26 00:43:00,25.0,8.0,-100.00,SSW,211,3.0,16.0,47,0.00,,,0.05,0.000000,,2013-11-26 05:43:00,
2013-11-26 00:53:00,25.0,8.0,-100.00,SSW,211,3.0,16.0,47,0.00,,,0.05,0.000000,,2013-11-26 05:53:00,
2013-11-26 01:01:00,26.0,7.0,-100.00,WSW,249,4.0,17.0,44,0.00,,,0.05,0.000000,,2013-11-26 06:01:00,
2013-11-26 01:42:00,26.0,7.0,-100.00,WSW,249,4.0,17.0,44,0.00,,,0.05,0.000000,,2013-11-26 06:42:00,
2013-11-26 01:52:00,26.0,7.0,-100.00,WSW,249,4.0,17.0,44,0.00,,,0.05,0.000000,,2013-11-26 06:52:00,
2013-11-26 02:01:00,25.0,7.0,-100.00,WSW,255,1.0,11.0,46,0.00,,,0.05,0.000000,,2013-11-26 07:01:00,
2013-11-26 02:42:00,25.0,7.0,-100.00,WSW,255,1.0,11.0,46,0.00,,,0.05,0.000000,,2013-11-26 07:42:00,
2013-11-26 02:52:00,25.0,7.0,-100.00,WSW,255,1.0,11.0,46,0.00,,,0.05,0.000000,,2013-11-26 07:52:00,
2013-11-26 03:01:00,26.0,9.0,-100.00,WSW,248,3.0,12.0,47,0.00,,,0.05,0.000000,,2013-11-26 08:01:00,
2013-11-26 03:42:00,26.0,9.0,-100.00,WSW,248,3.0,12.0,47,0.00,,,0.05,0.000000,,2013-11-26 08:42:00,
2013-11-26 03:52:00,26.0,9.0,-100.00,WSW,248,3.0,12.0,47,0.00,,,0.05,0.000000,,2013-11-26 08:52:00,
2013-11-26 04:01:00,26.0,11.0,-100.00,WSW,240,4.0,13.0,53,0.00,,,0.05,0.000000,,2013-11-26 09:01:00,
2013-11-26 04:44:00,26.0,11.0,-100.00,WSW,240,4.0,13.0,53,0.00,,,0.05,0.000000,,2013-11-26 09:44:00,
2013-11-26 04:54:00,26.0,11.0,-100.00,WSW,240,4.0,13.0,53,0.00,,,0.05,0.000000,,2013-11-26 09:54:00,
2013-11-26 05:01:00,26.0,13.0,-100.00,West,268,4.0,11.0,58,0.00,,,0.05,0.000000,,2013-11-26 10:01:00,
2013-11-26 05:43:00,26.0,13.0,-100.00,West,268,4.0,11.0,58,0.00,,,0.05,0.000000,,2013-11-26 10:43:00,
2013-11-26 05:53:00,26.0,13.0,-100.00,West,268,4.0,11.0,58,0.00,,,0.05,0.000000,,2013-11-26 10:53:00,
2013-11-26 06:01:00,26.0,15.0,-100.00,WSW,254,3.0,9.0,63,0.00,,,0.05,0.000000,,2013-11-26 11:01:00,
2013-11-26 06:42:00,26.0,15.0,-100.00,WSW,254,3.0,9.0,63,0.00,,,0.05,0.000000,,2013-11-26 11:42:00,
2013-11-26 06:53:00,26.0,15.0,-100.00,WSW,254,3.0,9.0,63,0.00,,,0.05,0.000000,,2013-11-26 11:53:00,
2013-11-26 07:01:00,26.0,17.0,-100.00,WSW,253,4.0,11.0,69,0.00,,,0.05,0.000000,,2013-11-26 12:01:00,
2013-11-26 07:42:00,26.0,17.0,-100.00,WSW,253,4.0,11.0,69,0.00,,,0.05,0.000000,,2013-11-26 12:42:00,
2013-11-26 07:52:00,26.0,17.0,-100.00,WSW,253,4.0,11.0,69,0.00,,,0.05,0.000000,,2013-11-26 12:52:00,
2013-11-26 08:01:00,26.0,17.0,-100.00,WSW,244,2.0,9.0,69,0.00,,,0.05,12.000000,,2013-11-26 13:01:00,
2013-11-26 08:42:00,26.0,17.0,-100.00,WSW,244,2.0,9.0,69,0.00,,,0.05,12.000000,,2013-11-26 13:42:00,
2013-11-26 08:52:00,26.0,17.0,-100.00,WSW,244,2.0,9.0,69,0.00,,,0.05,12.000000,,2013-11-26 13:52:00,
2013-11-26 09:01:00,26.0,19.0,-100.00,West,261,4.0,9.0,73,0.00,,,0.05,38.000000,,2013-11-26 14:01:00,
2013-11-26 09:42:00,26.0,19.0,-100.00,West,261,4.0,9.0,73,0.00,,,0.05,38.000000,,2013-11-26 14:42:00,
2013-11-26 09:52:00,26.0,19.0,-100.00,West,261,4.0,9.0,73,0.00,,,0.05,38.000000,,2013-11-26 14:52:00,
2013-11-26 10:01:00,29.0,20.0,-100.00,WSW,247,3.0,11.0,70,0.00,,,0.05,110.000000,,2013-11-26 15:01:00,
2013-11-26 10:22:00,29.0,20.0,-100.00,WSW,247,3.0,11.0,70,0.00,,,0.05,110.000000,,2013-11-26 15:22:00,
2013-11-26 10:33:00,29.0,20.0,-100.00,WSW,247,3.0,11.0,70,0.00,,,0.05,110.000000,,2013-11-26 15:33:00,
2013-11-26 10:44:00,29.0,20.0,-100.00,WSW,247,3.0,11.0,70,0.00,,,0.05,110.000000,,2013-11-26 15:44:00,
2013-11-26 10:55:00,29.0,20.0,-100.00,WSW,247,3.0,11.0,70,0.00,,,0.05,110.000000,,2013-11-26 15:55:00,
2013-11-26 11:01:00,28.0,20.0,-100.00,SSW,204,2.0,7.0,70,0.00,,,0.04,105.000000,,2013-11-26 16:01:00,
2013-11-26 11:43:00,28.0,20.0,-100.00,SSW,204,2.0,7.0,70,0.00,,,0.04,105.000000,,2013-11-26 16:43:00,
2013-11-26 11:54:00,28.0,20.0,-100.00,SSW,204,2.0,7.0,70,0.00,,,0.04,105.000000,,2013-11-26 16:54:00,
2013-11-26 12:01:00,29.0,21.0,-100.00,SSW,207,3.0,9.0,72,0.00,,,0.02,97.000000,,2013-11-26 17:01:00,
2013-11-26 12:22:00,29.0,21.0,-100.00,SSW,207,3.0,9.0,72,0.00,,,0.02,97.000000,,2013-11-26 17:22:00,
2013-11-26 12:33:00,29.0,21.0,-100.00,SSW,207,3.0,9.0,72,0.00,,,0.02,97.000000,,2013-11-26 17:33:00,
2013-11-26 12:43:00,29.0,21.0,-100.00,SSW,207,3.0,9.0,72,0.00,,,0.02,97.000000,,2013-11-26 17:43:00,
2013-11-26 12:53:00,29.0,21.0,-100.00,SSW,207,3.0,9.0,72,0.00,,,0.02,97.000000,,2013-11-26 17:53:00,
2013-11-26 13:01:00,30.0,22.0,-100.00,SW,232,1.0,9.0,71,0.00,,,0.00,101.000000,,2013-11-26 18:01:00,
2013-11-26 13:42:00,30.0,22.0,-100.00,SW,232,1.0,9.0,71,0.00,,,0.00,101.000000,,2013-11-26 18:42:00,
2013-11-26 13:53:00,30.0,22.0,-100.00,SW,232,1.0,9.0,71,0.00,,,0.00,101.000000,,2013-11-26 18:53:00,
2013-11-26 14:01:00,30.0,21.0,-100.00,WSW,238,2.0,10.0,70,0.00,,,0.00,79.000000,,2013-11-26 19:01:00,
2013-11-26 14:22:00,30.0,21.0,-100.00,WSW,238,2.0,10.0,70,0.00,,,0.00,79.000000,,2013-11-26 19:22:00,
2013-11-26 14:32:00,30.0,21.0,-100.00,WSW,238,2.0,10.0,70,0.00,,,0.00,79.000000,,2013-11-26 19:32:00,
2013-11-26 14:42:00,30.0,21.0,-100.00,WSW,238,2.0,10.0,70,0.00,,,0.00,79.000000,,2013-11-26 19:42:00,
2013-11-26 14:52:00,30.0,21.0,-100.00,WSW,238,2.0,10.0,70,0.00,,,0.00,79.000000,,2013-11-26 19:52:00,
2013-11-26 15:01:00,30.0,22.0,-100.00,ENE,69,3.0,5.0,72,0.00,,,0.00,48.000000,,2013-11-26 20:01:00,
2013-11-26 15:22:00,30.0,22.0,-100.00,ENE,69,3.0,5.0,72,0.00,,,0.00,48.000000,,2013-11-26 20:22:00,
2013-11-26 15:32:00,30.0,22.0,-100.00,ENE,69,3.0,5.0,72,0.00,,,0.00,48.000000,,2013-11-26 20:32:00,
2013-11-26 15:42:00,30.0,22.0,-100.00,ENE,69,3.0,5.0,72,0.00,,,0.00,48.000000,,2013-11-26 20:42:00,
2013-11-26 15:53:00,30.0,22.0,-100.00,ENE,69,3.0,5.0,72,0.00,,,0.00,48.000000,,2013-11-26 20:53:00,
2013-11-26 16:01:00,29.0,24.0,-100.00,ENE,68,4.0,8.0,80,0.00,,,0.00,22.000000,,2013-11-26 21:01:00,
2013-11-26 16:22:00,29.0,24.0,-100.00,ENE,68,4.0,8.0,80,0.00,,,0.00,22.000000,,2013-11-26 21:22:00,
2013-11-26 16:34:00,29.0,24.0,-100.00,ENE,68,4.0,8.0,80,0.00,,,0.00,22.000000,,2013-11-26 21:34:00,
2013-11-26 16:44:00,29.0,24.0,-100.00,ENE,68,4.0,8.0,80,0.00,,,0.00,22.000000,,2013-11-26 21:44:00,
2013-11-26 16:53:00,29.0,24.0,-100.00,ENE,68,4.0,8.0,80,0.00,,,0.00,22.000000,,2013-11-26 21:53:00,
2013-11-26 17:01:00,28.0,24.0,-100.00,NE,56,5.0,7.0,83,0.00,,,0.00,1.000000,,2013-11-26 22:01:00,
2013-11-26 17:23:00,28.0,24.0,-100.00,NE,56,5.0,7.0,83,0.00,,,0.00,1.000000,,2013-11-26 22:23:00,
2013-11-26 17:33:00,28.0,24.0,-100.00,NE,56,5.0,7.0,83,0.00,,,0.00,1.000000,,2013-11-26 22:33:00,
2013-11-26 17:43:00,28.0,24.0,-100.00,NE,56,5.0,7.0,83,0.00,,,0.00,1.000000,,2013-11-26 22:43:00,
2013-11-26 17:53:00,28.0,24.0,-100.00,NE,56,5.0,7.0,83,0.00,,,0.00,1.000000,,2013-11-26 22:53:00,
2013-11-26 18:01:00,28.0,24.0,-100.00,East,99,1.0,8.0,86,0.00,,,0.00,0.000000,,2013-11-26 23:01:00,
2013-11-26 18:22:00,28.0,24.0,-100.00,East,99,1.0,8.0,86,0.00,,,0.00,0.000000,,2013-11-26 23:22:00,
2013-11-26 18:33:00,28.0,24.0,-100.00,East,99,1.0,8.0,86,0.00,,,0.00,0.000000,,2013-11-26 23:33:00,
2013-11-26 18:43:00,28.0,24.0,-100.00,East,99,1.0,8.0,86,0.00,,,0.00,0.000000,,2013-11-26 23:43:00,
2013-11-26 18:53:00,28.0,24.0,-100.00,East,99,1.0,8.0,86,0.00,,,0.00,0.000000,,2013-11-26 23:53:00,
2013-11-26 19:01:00,27.0,24.0,-100.00,ESE,113,1.0,7.0,89,0.00,,,0.00,0.000000,,2013-11-27 00:01:00,
2013-11-26 19:22:00,27.0,24.0,-100.00,ESE,113,1.0,7.0,89,0.00,,,0.00,0.000000,,2013-11-27 00:22:00,
2013-11-26 19:32:00,27.0,24.0,-100.00,ESE,113,1.0,7.0,89,0.00,,,0.00,0.000000,,2013-11-27 00:32:00,
2013-11-26 19:42:00,27.0,24.0,-100.00,ESE,113,1.0,7.0,89,0.00,,,0.00,0.000000,,2013-11-27 00:42:00,
2013-11-26 19:52:00,27.0,24.0,-100.00,ESE,113,1.0,7.0,89,0.00,,,0.00,0.000000,,2013-11-27 00:52:00,
2013-11-26 20:01:00,27.0,24.0,-100.00,ESE,116,1.0,5.0,90,0.00,,,0.00,0.000000,,2013-11-27 01:01:00,
2013-11-26 20:22:00,27.0,24.0,-100.00,ESE,116,1.0,5.0,90,0.00,,,0.00,0.000000,,2013-11-27 01:22:00,
2013-11-26 20:32:00,27.0,24.0,-100.00,ESE,116,1.0,5.0,90,0.00,,,0.00,0.000000,,2013-11-27 01:32:00,
2013-11-26 20:42:00,27.0,24.0,-100.00,ESE,116,1.0,5.0,90,0.00,,,0.00,0.000000,,2013-11-27 01:42:00,
2013-11-26 20:52:00,27.0,24.0,-100.00,ESE,116,1.0,5.0,90,0.00,,,0.00,0.000000,,2013-11-27 01:52:00,
2013-11-26 21:01:00,28.0,25.0,-100.00,NE,36,1.0,6.0,90,0.00,,,0.00,0.000000,,2013-11-27 02:01:00,
2013-11-26 21:22:00,28.0,25.0,-100.00,NE,36,1.0,6.0,90,0.00,,,0.00,0.000000,,2013-11-27 02:22:00,
2013-11-26 21:32:00,28.0,25.0,-100.00,NE,36,1.0,6.0,90,0.00,,,0.00,0.000000,,2013-11-27 02:32:00,
2013-11-26 21:42:00,28.0,25.0,-100.00,NE,36,1.0,6.0,90,0.00,,,0.00,0.000000,,2013-11-27 02:42:00,
2013-11-26 21:52:00,28.0,25.0,-100.00,NE,36,1.0,6.0,90,0.00,,,0.00,0.000000,,2013-11-27 02:52:00,
2013-11-26 22:01:00,28.0,26.0,-100.00,WSW,252,1.0,6.0,92,0.00,,,0.00,0.000000,,2013-11-27 03:01:00,
2013-11-26 22:22:00,28.0,26.0,-100.00,WSW,252,1.0,6.0,92,0.00,,,0.00,0.000000,,2013-11-27 03:22:00,
2013-11-26 22:34:00,28.0,26.0,-100.00,WSW,252,1.0,6.0,92,0.00,,,0.00,0.000000,,2013-11-27 03:34:00,
2013-11-26 22:44:00,28.0,26.0,-100.00,WSW,252,1.0,6.0,92,0.00,,,0.00,0.000000,,2013-11-27 03:44:00,
2013-11-26 22:54:00,28.0,26.0,-100.00,WSW,252,1.0,6.0,92,0.00,,,0.00,0.000000,,2013-11-27 03:54:00,
2013-11-26 23:01:00,28.0,26.0,-100.00,SSE,163,1.0,7.0,93,0.00,,,0.00,0.000000,,2013-11-27 04:01:00,
2013-11-26 23:23:00,28.0,26.0,-100.00,SSE,163,1.0,7.0,93,0.00,,,0.00,0.000000,,2013-11-27 04:23:00,
2013-11-26 23:34:00,28.0,26.0,-100.00,SSE,163,1.0,7.0,93,0.00,,,0.00,0.000000,,2013-11-27 04:34:00,
2013-11-26 23:43:00,28.0,26.0,-100.00,SSE,163,1.0,7.0,93,0.00,,,0.00,0.000000,,2013-11-27 04:43:00,
2013-11-26 23:53:00,28.0,26.0,-100.00,SSE,163,1.0,7.0,93,0.00,,,0.00,0.000000,,2013-11-27 04:53:00,